Year,Month,Day,Hour,Minute,Value (Times are PST for temperature in C)
2013,07,11,00,00,15.20
2013,07,11,00,01,15.10
2013,07,11,00,02,15.10
2013,07,11,00,03,15.10
2013,07,11,00,04,15.00
2013,07,11,00,05,15.00
2013,07,11,00,06,14.90
2013,07,11,00,07,14.90
2013,07,11,00,08,14.90
2013,07,11,00,09,14.80
2013,07,11,00,10,14.80
2013,07,11,00,11,14.80
2013,07,11,00,12,14.80
2013,07,11,00,13,14.70
2013,07,11,00,14,14.70
2013,07,11,00,15,14.70
2013,07,11,00,16,14.70
2013,07,11,00,17,14.60
2013,07,11,00,18,14.60
2013,07,11,00,19,14.60
2013,07,11,00,20,14.60
2013,07,11,00,21,14.50
2013,07,11,00,22,14.50
2013,07,11,00,23,14.50
2013,07,11,00,24,14.40
2013,07,11,00,25,14.40
2013,07,11,00,26,14.40
2013,07,11,00,27,14.40
2013,07,11,00,28,14.40
2013,07,11,00,29,14.30
2013,07,11,00,30,14.30
2013,07,11,00,31,14.30
2013,07,11,00,32,14.30
2013,07,11,00,33,14.30
2013,07,11,00,34,14.30
2013,07,11,00,35,14.30
2013,07,11,00,36,14.30
2013,07,11,00,37,14.30
2013,07,11,00,38,14.20
2013,07,11,00,39,14.20
2013,07,11,00,40,14.20
2013,07,11,00,41,14.20
2013,07,11,00,42,14.20
2013,07,11,00,43,14.20
2013,07,11,00,44,14.20
2013,07,11,00,45,14.20
2013,07,11,00,46,14.10
2013,07,11,00,47,14.10
2013,07,11,00,48,14.10
2013,07,11,00,49,14.10
2013,07,11,00,50,14.10
2013,07,11,00,51,14.10
2013,07,11,00,52,14.10
2013,07,11,00,53,14.00
2013,07,11,00,54,14.00
2013,07,11,00,55,14.00
2013,07,11,00,56,14.00
2013,07,11,00,57,13.90
2013,07,11,00,58,13.90
2013,07,11,00,59,13.90
2013,07,11,01,00,13.80
2013,07,11,01,01,13.80
2013,07,11,01,02,13.80
2013,07,11,01,03,13.80
2013,07,11,01,04,13.80
2013,07,11,01,05,13.80
2013,07,11,01,06,13.70
2013,07,11,01,07,13.70
2013,07,11,01,08,13.70
2013,07,11,01,09,13.70
2013,07,11,01,10,13.70
2013,07,11,01,11,13.70
2013,07,11,01,12,13.60
2013,07,11,01,13,13.60
2013,07,11,01,14,13.60
2013,07,11,01,15,13.60
2013,07,11,01,16,13.70
2013,07,11,01,17,13.70
2013,07,11,01,18,13.70
2013,07,11,01,19,13.70
2013,07,11,01,20,13.70
2013,07,11,01,21,13.60
2013,07,11,01,22,13.60
2013,07,11,01,23,13.60
2013,07,11,01,24,13.60
2013,07,11,01,25,13.60
2013,07,11,01,26,13.60
2013,07,11,01,27,13.60
2013,07,11,01,28,13.60
2013,07,11,01,29,13.60
2013,07,11,01,30,13.60
2013,07,11,01,31,13.60
2013,07,11,01,32,13.60
2013,07,11,01,33,13.60
2013,07,11,01,34,13.60
2013,07,11,01,35,13.60
2013,07,11,01,36,13.60
2013,07,11,01,37,13.60
2013,07,11,01,38,13.60
2013,07,11,01,39,13.60
2013,07,11,01,40,13.60
2013,07,11,01,41,13.60
2013,07,11,01,42,13.60
2013,07,11,01,43,13.60
2013,07,11,01,44,13.60
2013,07,11,01,45,13.60
2013,07,11,01,46,13.60
2013,07,11,01,47,13.60
2013,07,11,01,48,13.60
2013,07,11,01,49,13.60
2013,07,11,01,50,13.50
2013,07,11,01,51,13.50
2013,07,11,01,52,13.50
2013,07,11,01,53,13.50
2013,07,11,01,54,13.50
2013,07,11,01,55,13.50
2013,07,11,01,56,13.50
2013,07,11,01,57,13.40
2013,07,11,01,58,13.40
2013,07,11,01,59,13.40
2013,07,11,02,00,13.40
2013,07,11,02,01,13.40
2013,07,11,02,02,13.40
2013,07,11,02,03,13.30
2013,07,11,02,04,13.30
2013,07,11,02,05,13.30
2013,07,11,02,06,13.30
2013,07,11,02,07,13.30
2013,07,11,02,08,13.30
2013,07,11,02,09,13.20
2013,07,11,02,10,13.20
2013,07,11,02,11,13.20
2013,07,11,02,12,13.20
2013,07,11,02,13,13.20
2013,07,11,02,14,13.20
2013,07,11,02,15,13.10
2013,07,11,02,16,13.10
2013,07,11,02,17,13.10
2013,07,11,02,18,13.10
2013,07,11,02,19,13.10
2013,07,11,02,20,13.10
2013,07,11,02,21,13.00
2013,07,11,02,22,13.00
2013,07,11,02,23,13.00
2013,07,11,02,24,13.00
2013,07,11,02,25,13.00
2013,07,11,02,26,13.00
2013,07,11,02,27,13.00
2013,07,11,02,28,13.00
2013,07,11,02,29,12.90
2013,07,11,02,30,12.90
2013,07,11,02,31,12.90
2013,07,11,02,32,12.90
2013,07,11,02,33,12.90
2013,07,11,02,34,12.90
2013,07,11,02,35,12.90
2013,07,11,02,36,12.90
2013,07,11,02,37,12.90
2013,07,11,02,38,12.90
2013,07,11,02,39,12.80
2013,07,11,02,40,12.80
2013,07,11,02,41,12.80
2013,07,11,02,42,12.80
2013,07,11,02,43,12.80
2013,07,11,02,44,12.80
2013,07,11,02,45,12.80
2013,07,11,02,46,12.80
2013,07,11,02,47,12.80
2013,07,11,02,48,12.80
2013,07,11,02,49,12.80
2013,07,11,02,50,12.80
2013,07,11,02,51,12.80
2013,07,11,02,52,12.80
2013,07,11,02,53,12.80
2013,07,11,02,54,12.80
2013,07,11,02,55,12.90
2013,07,11,02,56,12.90
2013,07,11,02,57,12.90
2013,07,11,02,58,12.90
2013,07,11,02,59,12.90
2013,07,11,03,00,12.90
2013,07,11,03,01,12.90
2013,07,11,03,02,12.90
2013,07,11,03,03,13.00
2013,07,11,03,04,13.00
2013,07,11,03,05,13.00
2013,07,11,03,06,13.00
2013,07,11,03,07,13.00
2013,07,11,03,08,13.10
2013,07,11,03,09,13.10
2013,07,11,03,10,13.10
2013,07,11,03,11,13.10
2013,07,11,03,12,13.10
2013,07,11,03,13,13.10
2013,07,11,03,14,13.10
2013,07,11,03,15,13.10
2013,07,11,03,16,13.10
2013,07,11,03,17,13.10
2013,07,11,03,18,13.20
2013,07,11,03,19,13.20
2013,07,11,03,20,13.20
2013,07,11,03,21,13.20
2013,07,11,03,22,13.20
2013,07,11,03,23,13.20
2013,07,11,03,24,13.20
2013,07,11,03,25,13.20
2013,07,11,03,26,13.20
2013,07,11,03,27,13.20
2013,07,11,03,28,13.20
2013,07,11,03,29,13.20
2013,07,11,03,30,13.20
2013,07,11,03,31,13.10
2013,07,11,03,32,13.10
2013,07,11,03,33,13.10
2013,07,11,03,34,13.10
2013,07,11,03,35,13.10
2013,07,11,03,36,13.10
2013,07,11,03,37,13.10
2013,07,11,03,38,13.10
2013,07,11,03,39,13.10
2013,07,11,03,40,13.10
2013,07,11,03,41,13.00
2013,07,11,03,42,13.00
2013,07,11,03,43,13.00
2013,07,11,03,44,13.00
2013,07,11,03,45,13.00
2013,07,11,03,46,12.90
2013,07,11,03,47,12.90
2013,07,11,03,48,12.90
2013,07,11,03,49,12.90
2013,07,11,03,50,12.90
2013,07,11,03,51,12.90
2013,07,11,03,52,12.90
2013,07,11,03,53,12.90
2013,07,11,03,54,12.90
2013,07,11,03,55,12.90
2013,07,11,03,56,12.90
2013,07,11,03,57,12.90
2013,07,11,03,58,13.00
2013,07,11,03,59,13.00
2013,07,11,04,00,13.00
2013,07,11,04,01,13.00
2013,07,11,04,02,13.00
2013,07,11,04,03,13.00
2013,07,11,04,04,13.10
2013,07,11,04,05,13.10
2013,07,11,04,06,13.10
2013,07,11,04,07,13.10
2013,07,11,04,08,13.10
2013,07,11,04,09,13.10
2013,07,11,04,10,13.10
2013,07,11,04,11,13.10
2013,07,11,04,12,13.10
2013,07,11,04,13,13.10
2013,07,11,04,14,13.10
2013,07,11,04,15,13.10
2013,07,11,04,16,13.10
2013,07,11,04,17,13.10
2013,07,11,04,18,13.10
2013,07,11,04,19,13.00
2013,07,11,04,20,13.00
2013,07,11,04,21,13.00
2013,07,11,04,22,13.00
2013,07,11,04,23,13.00
2013,07,11,04,24,13.00
2013,07,11,04,25,12.90
2013,07,11,04,26,12.90
2013,07,11,04,27,12.90
2013,07,11,04,28,12.90
2013,07,11,04,29,12.80
2013,07,11,04,30,12.80
2013,07,11,04,31,12.80
2013,07,11,04,32,12.80
2013,07,11,04,33,12.70
2013,07,11,04,34,12.70
2013,07,11,04,35,12.70
2013,07,11,04,36,12.70
2013,07,11,04,37,12.60
2013,07,11,04,38,12.60
2013,07,11,04,39,12.60
2013,07,11,04,40,12.50
2013,07,11,04,41,12.50
2013,07,11,04,42,12.50
2013,07,11,04,43,12.40
2013,07,11,04,44,12.40
2013,07,11,04,45,12.40
2013,07,11,04,46,12.40
2013,07,11,04,47,12.40
2013,07,11,04,48,12.30
2013,07,11,04,49,12.30
2013,07,11,04,50,12.30
2013,07,11,04,51,12.30
2013,07,11,04,52,12.30
2013,07,11,04,53,12.30
2013,07,11,04,54,12.30
2013,07,11,04,55,12.20
2013,07,11,04,56,12.20
2013,07,11,04,57,12.20
2013,07,11,04,58,12.30
2013,07,11,04,59,12.30
2013,07,11,05,00,12.30
2013,07,11,05,01,12.40
2013,07,11,05,02,12.40
2013,07,11,05,03,12.50
2013,07,11,05,04,12.60
2013,07,11,05,05,12.70
2013,07,11,05,06,12.80
2013,07,11,05,07,12.80
2013,07,11,05,08,12.90
2013,07,11,05,09,13.00
2013,07,11,05,10,13.10
2013,07,11,05,11,13.20
2013,07,11,05,12,13.30
2013,07,11,05,13,13.30
2013,07,11,05,14,13.40
2013,07,11,05,15,13.50
2013,07,11,05,16,13.60
2013,07,11,05,17,13.70
2013,07,11,05,18,13.80
2013,07,11,05,19,13.90
2013,07,11,05,20,13.90
2013,07,11,05,21,14.00
2013,07,11,05,22,14.10
2013,07,11,05,23,14.10
2013,07,11,05,24,14.10
2013,07,11,05,25,14.10
2013,07,11,05,26,14.10
2013,07,11,05,27,14.20
2013,07,11,05,28,14.20
2013,07,11,05,29,14.20
2013,07,11,05,30,14.20
2013,07,11,05,31,14.20
2013,07,11,05,32,14.20
2013,07,11,05,33,14.20
2013,07,11,05,34,14.20
2013,07,11,05,35,14.20
2013,07,11,05,36,14.20
2013,07,11,05,37,14.20
2013,07,11,05,38,14.20
2013,07,11,05,39,14.20
2013,07,11,05,40,14.20
2013,07,11,05,41,14.20
2013,07,11,05,42,14.10
2013,07,11,05,43,14.10
2013,07,11,05,44,14.10
2013,07,11,05,45,14.10
2013,07,11,05,46,14.10
2013,07,11,05,47,14.10
2013,07,11,05,48,14.00
2013,07,11,05,49,14.00
2013,07,11,05,50,14.00
2013,07,11,05,51,14.00
2013,07,11,05,52,14.00
2013,07,11,05,53,14.00
2013,07,11,05,54,14.00
2013,07,11,05,55,14.00
2013,07,11,05,56,14.00
2013,07,11,05,57,14.00
2013,07,11,05,58,14.00
2013,07,11,05,59,14.00
2013,07,11,06,00,14.00
2013,07,11,06,01,14.00
2013,07,11,06,02,13.90
2013,07,11,06,03,13.90
2013,07,11,06,04,13.90
2013,07,11,06,05,13.90
2013,07,11,06,06,14.00
2013,07,11,06,07,14.00
2013,07,11,06,08,14.00
2013,07,11,06,09,14.00
2013,07,11,06,10,14.00
2013,07,11,06,11,14.00
2013,07,11,06,12,14.00
2013,07,11,06,13,14.10
2013,07,11,06,14,14.10
2013,07,11,06,15,14.10
2013,07,11,06,16,14.10
2013,07,11,06,17,14.10
2013,07,11,06,18,14.10
2013,07,11,06,19,14.10
2013,07,11,06,20,14.10
2013,07,11,06,21,14.10
2013,07,11,06,22,14.10
2013,07,11,06,23,14.10
2013,07,11,06,24,14.20
2013,07,11,06,25,14.20
2013,07,11,06,26,14.20
2013,07,11,06,27,14.20
2013,07,11,06,28,14.20
2013,07,11,06,29,14.20
2013,07,11,06,30,14.20
2013,07,11,06,31,14.20
2013,07,11,06,32,14.20
2013,07,11,06,33,14.20
2013,07,11,06,34,14.20
2013,07,11,06,35,14.20
2013,07,11,06,36,14.10
2013,07,11,06,37,14.10
2013,07,11,06,38,14.10
2013,07,11,06,39,14.10
2013,07,11,06,40,14.10
2013,07,11,06,41,14.10
2013,07,11,06,42,14.10
2013,07,11,06,43,14.10
2013,07,11,06,44,14.10
2013,07,11,06,45,14.10
2013,07,11,06,46,14.10
2013,07,11,06,47,14.00
2013,07,11,06,48,14.00
2013,07,11,06,49,13.90
2013,07,11,06,50,13.90
2013,07,11,06,51,13.90
2013,07,11,06,52,13.80
2013,07,11,06,53,13.80
2013,07,11,06,54,13.70
2013,07,11,06,55,13.70
2013,07,11,06,56,13.60
2013,07,11,06,57,13.60
2013,07,11,06,58,13.60
2013,07,11,06,59,13.60
2013,07,11,07,00,13.60
2013,07,11,07,01,13.60
2013,07,11,07,02,13.50
2013,07,11,07,03,13.50
2013,07,11,07,04,13.50
2013,07,11,07,05,13.50
2013,07,11,07,06,13.50
2013,07,11,07,07,13.50
2013,07,11,07,08,13.50
2013,07,11,07,09,13.50
2013,07,11,07,10,13.50
2013,07,11,07,11,13.50
2013,07,11,07,12,13.50
2013,07,11,07,13,13.50
2013,07,11,07,14,13.50
2013,07,11,07,15,13.50
2013,07,11,07,16,13.50
2013,07,11,07,17,13.40
2013,07,11,07,18,13.40
2013,07,11,07,19,13.40
2013,07,11,07,20,13.50
2013,07,11,07,21,13.40
2013,07,11,07,22,13.50
2013,07,11,07,23,13.50
2013,07,11,07,24,13.50
2013,07,11,07,25,13.50
2013,07,11,07,26,13.50
2013,07,11,07,27,13.60
2013,07,11,07,28,13.60
2013,07,11,07,29,13.60
2013,07,11,07,30,13.60
2013,07,11,07,31,13.70
2013,07,11,07,32,13.70
2013,07,11,07,33,13.70
2013,07,11,07,34,13.70
2013,07,11,07,35,13.80
2013,07,11,07,36,13.80
2013,07,11,07,37,13.80
2013,07,11,07,38,13.80
2013,07,11,07,39,13.80
2013,07,11,07,40,13.80
2013,07,11,07,41,13.80
2013,07,11,07,42,13.80
2013,07,11,07,43,13.80
2013,07,11,07,44,13.80
2013,07,11,07,45,13.80
2013,07,11,07,46,13.80
2013,07,11,07,47,13.80
2013,07,11,07,48,13.90
2013,07,11,07,49,13.90
2013,07,11,07,50,13.90
2013,07,11,07,51,13.90
2013,07,11,07,52,14.00
2013,07,11,07,53,14.10
2013,07,11,07,54,14.10
2013,07,11,07,55,14.20
2013,07,11,07,56,14.20
2013,07,11,07,57,14.20
2013,07,11,07,58,14.30
2013,07,11,07,59,14.30
2013,07,11,08,00,14.30
2013,07,11,08,01,14.40
2013,07,11,08,02,14.40
2013,07,11,08,03,14.40
2013,07,11,08,04,14.40
2013,07,11,08,05,14.50
2013,07,11,08,06,14.50
2013,07,11,08,07,14.60
2013,07,11,08,08,14.60
2013,07,11,08,09,14.70
2013,07,11,08,10,14.70
2013,07,11,08,11,14.80
2013,07,11,08,12,14.80
2013,07,11,08,13,14.80
2013,07,11,08,14,14.80
2013,07,11,08,15,14.80
2013,07,11,08,16,14.80
2013,07,11,08,17,14.80
2013,07,11,08,18,14.80
2013,07,11,08,19,14.90
2013,07,11,08,20,14.90
2013,07,11,08,21,15.00
2013,07,11,08,22,15.00
2013,07,11,08,23,15.10
2013,07,11,08,24,15.10
2013,07,11,08,25,15.20
2013,07,11,08,26,15.20
2013,07,11,08,27,15.20
2013,07,11,08,28,15.30
2013,07,11,08,29,15.30
2013,07,11,08,30,15.30
2013,07,11,08,31,15.30
2013,07,11,08,32,15.40
2013,07,11,08,33,15.40
2013,07,11,08,34,15.40
2013,07,11,08,35,15.40
2013,07,11,08,36,15.40
2013,07,11,08,37,15.50
2013,07,11,08,38,15.50
2013,07,11,08,39,15.50
2013,07,11,08,40,15.50
2013,07,11,08,41,15.50
2013,07,11,08,42,15.50
2013,07,11,08,43,15.50
2013,07,11,08,44,15.50
2013,07,11,08,45,15.50
2013,07,11,08,46,15.50
2013,07,11,08,47,15.50
2013,07,11,08,48,15.60
2013,07,11,08,49,15.60
2013,07,11,08,50,15.60
2013,07,11,08,51,15.70
2013,07,11,08,52,15.70
2013,07,11,08,53,15.70
2013,07,11,08,54,15.70
2013,07,11,08,55,15.80
2013,07,11,08,56,15.80
2013,07,11,08,57,15.80
2013,07,11,08,58,15.80
2013,07,11,08,59,15.80
2013,07,11,09,00,15.80
2013,07,11,09,01,15.90
2013,07,11,09,02,15.90
2013,07,11,09,03,15.90
2013,07,11,09,04,15.90
2013,07,11,09,05,15.90
2013,07,11,09,06,16.00
2013,07,11,09,07,16.00
2013,07,11,09,08,16.10
2013,07,11,09,09,16.00
2013,07,11,09,10,16.00
2013,07,11,09,11,16.00
2013,07,11,09,12,16.10
2013,07,11,09,13,16.10
2013,07,11,09,14,16.20
2013,07,11,09,15,16.20
2013,07,11,09,16,16.20
2013,07,11,09,17,16.20
2013,07,11,09,18,16.30
2013,07,11,09,19,16.40
2013,07,11,09,20,16.50
2013,07,11,09,21,16.60
2013,07,11,09,22,16.70
2013,07,11,09,23,16.80
2013,07,11,09,24,16.90
2013,07,11,09,25,16.90
2013,07,11,09,26,16.90
2013,07,11,09,27,16.90
2013,07,11,09,28,16.70
2013,07,11,09,29,16.60
2013,07,11,09,30,16.50
2013,07,11,09,31,16.30
2013,07,11,09,32,16.30
2013,07,11,09,33,16.30
2013,07,11,09,34,16.30
2013,07,11,09,35,16.30
2013,07,11,09,36,16.30
2013,07,11,09,37,16.40
2013,07,11,09,38,16.40
2013,07,11,09,39,16.50
2013,07,11,09,40,16.60
2013,07,11,09,41,16.60
2013,07,11,09,42,16.60
2013,07,11,09,43,16.60
2013,07,11,09,44,16.60
2013,07,11,09,45,16.60
2013,07,11,09,46,16.70
2013,07,11,09,47,16.80
2013,07,11,09,48,16.80
2013,07,11,09,49,16.90
2013,07,11,09,50,17.00
2013,07,11,09,51,17.00
2013,07,11,09,52,17.10
2013,07,11,09,53,17.10
2013,07,11,09,54,17.10
2013,07,11,09,55,17.20
2013,07,11,09,56,17.30
2013,07,11,09,57,17.40
2013,07,11,09,58,17.50
2013,07,11,09,59,17.50
2013,07,11,10,00,17.60
2013,07,11,10,01,17.60
2013,07,11,10,02,17.70
2013,07,11,10,03,17.80
2013,07,11,10,04,17.90
2013,07,11,10,05,17.90
2013,07,11,10,06,18.00
2013,07,11,10,07,18.10
2013,07,11,10,08,18.20
2013,07,11,10,09,18.20
2013,07,11,10,10,18.20
2013,07,11,10,11,18.20
2013,07,11,10,12,18.10
2013,07,11,10,13,18.00
2013,07,11,10,14,18.00
2013,07,11,10,15,17.90
2013,07,11,10,16,17.80
2013,07,11,10,17,17.80
2013,07,11,10,18,17.60
2013,07,11,10,19,17.40
2013,07,11,10,20,17.20
2013,07,11,10,21,17.10
2013,07,11,10,22,17.10
2013,07,11,10,23,17.10
2013,07,11,10,24,17.00
2013,07,11,10,25,17.00
2013,07,11,10,26,16.90
2013,07,11,10,27,16.90
2013,07,11,10,28,16.90
2013,07,11,10,29,16.80
2013,07,11,10,30,16.80
2013,07,11,10,31,16.80
2013,07,11,10,32,16.80
2013,07,11,10,33,16.70
2013,07,11,10,34,16.70
2013,07,11,10,35,16.70
2013,07,11,10,36,16.70
2013,07,11,10,37,16.60
2013,07,11,10,38,16.60
2013,07,11,10,39,16.70
2013,07,11,10,40,16.70
2013,07,11,10,41,16.80
2013,07,11,10,42,16.70
2013,07,11,10,43,16.80
2013,07,11,10,44,16.70
2013,07,11,10,45,16.70
2013,07,11,10,46,16.70
2013,07,11,10,47,16.70
2013,07,11,10,48,16.70
2013,07,11,10,49,16.70
2013,07,11,10,50,16.80
2013,07,11,10,51,16.80
2013,07,11,10,52,16.90
2013,07,11,10,53,16.90
2013,07,11,10,54,17.00
2013,07,11,10,55,17.00
2013,07,11,10,56,17.10
2013,07,11,10,57,17.10
2013,07,11,10,58,17.20
2013,07,11,10,59,17.30
2013,07,11,11,00,17.40
2013,07,11,11,01,17.50
2013,07,11,11,02,17.50
2013,07,11,11,03,17.50
2013,07,11,11,04,17.60
2013,07,11,11,05,17.60
2013,07,11,11,06,17.70
2013,07,11,11,07,17.70
2013,07,11,11,08,17.80
2013,07,11,11,09,17.80
2013,07,11,11,10,17.80
2013,07,11,11,11,17.80
2013,07,11,11,12,17.80
2013,07,11,11,13,17.80
2013,07,11,11,14,17.90
2013,07,11,11,15,17.90
2013,07,11,11,16,17.90
2013,07,11,11,17,17.90
2013,07,11,11,18,18.00
2013,07,11,11,19,18.00
2013,07,11,11,20,18.00
2013,07,11,11,21,17.90
2013,07,11,11,22,17.90
2013,07,11,11,23,17.90
2013,07,11,11,24,17.90
2013,07,11,11,25,17.90
2013,07,11,11,26,17.90
2013,07,11,11,27,18.00
2013,07,11,11,28,18.10
2013,07,11,11,29,18.20
2013,07,11,11,30,18.20
2013,07,11,11,31,18.30
2013,07,11,11,32,18.50
2013,07,11,11,33,18.60
2013,07,11,11,34,18.70
2013,07,11,11,35,18.70
2013,07,11,11,36,18.60
2013,07,11,11,37,18.50
2013,07,11,11,38,18.50
2013,07,11,11,39,18.60
2013,07,11,11,40,18.70
2013,07,11,11,41,18.80
2013,07,11,11,42,18.90
2013,07,11,11,43,18.80
2013,07,11,11,44,18.70
2013,07,11,11,45,18.60
2013,07,11,11,46,18.60
2013,07,11,11,47,18.60
2013,07,11,11,48,18.60
2013,07,11,11,49,18.50
2013,07,11,11,50,18.40
2013,07,11,11,51,18.40
2013,07,11,11,52,18.50
2013,07,11,11,53,18.60
2013,07,11,11,54,18.70
2013,07,11,11,55,18.80
2013,07,11,11,56,18.80
2013,07,11,11,57,18.80
2013,07,11,11,58,18.90
2013,07,11,11,59,18.90
2013,07,11,12,00,18.90
2013,07,11,12,01,19.00
2013,07,11,12,02,19.10
2013,07,11,12,03,19.20
2013,07,11,12,04,19.30
2013,07,11,12,05,19.40
2013,07,11,12,06,19.60
2013,07,11,12,07,19.70
2013,07,11,12,08,19.80
2013,07,11,12,09,19.80
2013,07,11,12,10,19.80
2013,07,11,12,11,19.90
2013,07,11,12,12,20.00
2013,07,11,12,13,20.00
2013,07,11,12,14,20.00
2013,07,11,12,15,20.00
2013,07,11,12,16,19.90
2013,07,11,12,17,19.90
2013,07,11,12,18,19.80
2013,07,11,12,19,19.80
2013,07,11,12,20,19.80
2013,07,11,12,21,19.90
2013,07,11,12,22,19.90
2013,07,11,12,23,20.00
2013,07,11,12,24,20.10
2013,07,11,12,25,20.20
2013,07,11,12,26,20.30
2013,07,11,12,27,20.30
2013,07,11,12,28,20.30
2013,07,11,12,29,20.30
2013,07,11,12,30,20.30
2013,07,11,12,31,20.30
2013,07,11,12,32,20.20
2013,07,11,12,33,20.10
2013,07,11,12,34,19.90
2013,07,11,12,35,19.80
2013,07,11,12,36,19.70
2013,07,11,12,37,19.70
2013,07,11,12,38,19.70
2013,07,11,12,39,19.60
2013,07,11,12,40,19.60
2013,07,11,12,41,19.60
2013,07,11,12,42,19.60
2013,07,11,12,43,19.50
2013,07,11,12,44,19.50
2013,07,11,12,45,19.50
2013,07,11,12,46,19.50
2013,07,11,12,47,19.40
2013,07,11,12,48,19.30
2013,07,11,12,49,19.30
2013,07,11,12,50,19.30
2013,07,11,12,51,19.20
2013,07,11,12,52,19.20
2013,07,11,12,53,19.20
2013,07,11,12,54,19.20
2013,07,11,12,55,19.30
2013,07,11,12,56,19.30
2013,07,11,12,57,19.40
2013,07,11,12,58,19.50
2013,07,11,12,59,19.60
2013,07,11,13,00,19.80
2013,07,11,13,01,20.10
2013,07,11,13,02,20.40
2013,07,11,13,03,20.60
2013,07,11,13,04,20.90
2013,07,11,13,05,21.10
2013,07,11,13,06,21.30
2013,07,11,13,07,21.40
2013,07,11,13,08,21.60
2013,07,11,13,09,21.80
2013,07,11,13,10,21.90
2013,07,11,13,11,22.00
2013,07,11,13,12,21.90
2013,07,11,13,13,21.90
2013,07,11,13,14,21.90
2013,07,11,13,15,21.90
2013,07,11,13,16,21.90
2013,07,11,13,17,22.00
2013,07,11,13,18,22.00
2013,07,11,13,19,22.00
2013,07,11,13,20,22.10
2013,07,11,13,21,22.20
2013,07,11,13,22,22.30
2013,07,11,13,23,22.40
2013,07,11,13,24,22.40
2013,07,11,13,25,22.40
2013,07,11,13,26,22.50
2013,07,11,13,27,22.60
2013,07,11,13,28,22.70
2013,07,11,13,29,22.70
2013,07,11,13,30,22.70
2013,07,11,13,31,22.70
2013,07,11,13,32,22.50
2013,07,11,13,33,22.40
2013,07,11,13,34,22.30
2013,07,11,13,35,22.30
2013,07,11,13,36,22.40
2013,07,11,13,37,22.50
2013,07,11,13,38,22.60
2013,07,11,13,39,22.60
2013,07,11,13,40,22.60
2013,07,11,13,41,22.50
2013,07,11,13,42,22.50
2013,07,11,13,43,22.40
2013,07,11,13,44,22.40
2013,07,11,13,45,22.50
2013,07,11,13,46,22.60
2013,07,11,13,47,22.70
2013,07,11,13,48,22.80
2013,07,11,13,49,22.90
2013,07,11,13,50,23.00
2013,07,11,13,51,23.10
2013,07,11,13,52,23.20
2013,07,11,13,53,23.30
2013,07,11,13,54,23.40
2013,07,11,13,55,23.50
2013,07,11,13,56,23.60
2013,07,11,13,57,23.70
2013,07,11,13,58,23.70
2013,07,11,13,59,23.70
2013,07,11,14,00,23.60
2013,07,11,14,01,23.50
2013,07,11,14,02,23.40
2013,07,11,14,03,23.30
2013,07,11,14,04,23.30
2013,07,11,14,05,23.20
2013,07,11,14,06,23.10
2013,07,11,14,07,23.10
2013,07,11,14,08,23.10
2013,07,11,14,09,23.20
2013,07,11,14,10,23.20
2013,07,11,14,11,23.20
2013,07,11,14,12,23.20
2013,07,11,14,13,23.20
2013,07,11,14,14,23.10
2013,07,11,14,15,23.10
2013,07,11,14,16,23.10
2013,07,11,14,17,23.00
2013,07,11,14,18,22.80
2013,07,11,14,19,22.50
2013,07,11,14,20,22.30
2013,07,11,14,21,22.20
2013,07,11,14,22,22.30
2013,07,11,14,23,22.30
2013,07,11,14,24,22.30
2013,07,11,14,25,22.30
2013,07,11,14,26,22.40
2013,07,11,14,27,22.50
2013,07,11,14,28,22.60
2013,07,11,14,29,22.70
2013,07,11,14,30,22.70
2013,07,11,14,31,22.60
2013,07,11,14,32,22.60
2013,07,11,14,33,22.50
2013,07,11,14,34,22.30
2013,07,11,14,35,22.30
2013,07,11,14,36,22.40
2013,07,11,14,37,22.40
2013,07,11,14,38,22.40
2013,07,11,14,39,22.40
2013,07,11,14,40,22.50
2013,07,11,14,41,22.50
2013,07,11,14,42,22.60
2013,07,11,14,43,22.50
2013,07,11,14,44,22.40
2013,07,11,14,45,22.20
2013,07,11,14,46,22.10
2013,07,11,14,47,22.00
2013,07,11,14,48,22.10
2013,07,11,14,49,22.10
2013,07,11,14,50,22.20
2013,07,11,14,51,22.30
2013,07,11,14,52,22.40
2013,07,11,14,53,22.50
2013,07,11,14,54,22.60
2013,07,11,14,55,22.60
2013,07,11,14,56,22.70
2013,07,11,14,57,22.70
2013,07,11,14,58,22.80
2013,07,11,14,59,22.70
2013,07,11,15,00,22.50
2013,07,11,15,01,22.30
2013,07,11,15,02,22.30
2013,07,11,15,03,22.30
2013,07,11,15,04,22.20
2013,07,11,15,05,22.20
2013,07,11,15,06,22.20
2013,07,11,15,07,22.20
2013,07,11,15,08,22.20
2013,07,11,15,09,22.20
2013,07,11,15,10,22.20
2013,07,11,15,11,22.30
2013,07,11,15,12,22.40
2013,07,11,15,13,22.50
2013,07,11,15,14,22.60
2013,07,11,15,15,22.60
2013,07,11,15,16,22.60
2013,07,11,15,17,22.60
2013,07,11,15,18,22.70
2013,07,11,15,19,22.70
2013,07,11,15,20,22.80
2013,07,11,15,21,22.90
2013,07,11,15,22,22.90
2013,07,11,15,23,22.90
2013,07,11,15,24,22.90
2013,07,11,15,25,22.90
2013,07,11,15,26,22.90
2013,07,11,15,27,22.90
2013,07,11,15,28,22.90
2013,07,11,15,29,22.90
2013,07,11,15,30,22.90
2013,07,11,15,31,22.90
2013,07,11,15,32,22.90
2013,07,11,15,33,22.90
2013,07,11,15,34,22.90
2013,07,11,15,35,22.90
2013,07,11,15,36,22.90
2013,07,11,15,37,22.90
2013,07,11,15,38,22.80
2013,07,11,15,39,22.80
2013,07,11,15,40,22.70
2013,07,11,15,41,22.80
2013,07,11,15,42,22.80
2013,07,11,15,43,22.80
2013,07,11,15,44,22.80
2013,07,11,15,45,22.80
2013,07,11,15,46,22.80
2013,07,11,15,47,22.90
2013,07,11,15,48,23.00
2013,07,11,15,49,23.00
2013,07,11,15,50,22.90
2013,07,11,15,51,22.90
2013,07,11,15,52,22.90
2013,07,11,15,53,22.80
2013,07,11,15,54,22.80
2013,07,11,15,55,22.80
2013,07,11,15,56,22.90
2013,07,11,15,57,22.90
2013,07,11,15,58,22.90
2013,07,11,15,59,22.90
2013,07,11,16,00,22.90
2013,07,11,16,01,22.90
2013,07,11,16,02,23.00
2013,07,11,16,03,23.00
2013,07,11,16,04,23.10
2013,07,11,16,05,23.20
2013,07,11,16,06,23.20
2013,07,11,16,07,23.20
2013,07,11,16,08,23.20
2013,07,11,16,09,23.20
2013,07,11,16,10,23.10
2013,07,11,16,11,23.00
2013,07,11,16,12,22.90
2013,07,11,16,13,22.90
2013,07,11,16,14,22.80
2013,07,11,16,15,22.80
2013,07,11,16,16,22.80
2013,07,11,16,17,22.80
2013,07,11,16,18,22.80
2013,07,11,16,19,22.80
2013,07,11,16,20,22.90
2013,07,11,16,21,22.90
2013,07,11,16,22,22.80
2013,07,11,16,23,22.80
2013,07,11,16,24,22.80
2013,07,11,16,25,22.80
2013,07,11,16,26,22.70
2013,07,11,16,27,22.70
2013,07,11,16,28,22.80
2013,07,11,16,29,22.70
2013,07,11,16,30,22.80
2013,07,11,16,31,22.80
2013,07,11,16,32,22.80
2013,07,11,16,33,22.80
2013,07,11,16,34,22.80
2013,07,11,16,35,22.80
2013,07,11,16,36,22.80
2013,07,11,16,37,22.70
2013,07,11,16,38,22.70
2013,07,11,16,39,22.80
2013,07,11,16,40,22.80
2013,07,11,16,41,22.80
2013,07,11,16,42,22.80
2013,07,11,16,43,22.70
2013,07,11,16,44,22.60
2013,07,11,16,45,22.50
2013,07,11,16,46,22.50
2013,07,11,16,47,22.40
2013,07,11,16,48,22.40
2013,07,11,16,49,22.40
2013,07,11,16,50,22.30
2013,07,11,16,51,22.30
2013,07,11,16,52,22.30
2013,07,11,16,53,22.30
2013,07,11,16,54,22.30
2013,07,11,16,55,22.30
2013,07,11,16,56,22.30
2013,07,11,16,57,22.20
2013,07,11,16,58,22.20
2013,07,11,16,59,22.20
2013,07,11,17,00,22.20
2013,07,11,17,01,22.20
2013,07,11,17,02,22.20
2013,07,11,17,03,22.20
2013,07,11,17,04,22.20
2013,07,11,17,05,22.20
2013,07,11,17,06,22.30
2013,07,11,17,07,22.30
2013,07,11,17,08,22.40
2013,07,11,17,09,22.40
2013,07,11,17,10,22.50
2013,07,11,17,11,22.60
2013,07,11,17,12,22.50
2013,07,11,17,13,22.50
2013,07,11,17,14,22.40
2013,07,11,17,15,22.30
2013,07,11,17,16,22.30
2013,07,11,17,17,22.20
2013,07,11,17,18,22.20
2013,07,11,17,19,22.10